Location: S�deilles
(46.7500°N, 6.9329°E)
Time: 10:46:31
(UTC+00:00)

SME Rocket - Pass Details

Date: 08 March 2021
Orbit: 550 x 2652 km, 99.9° (Epoch: 22 April)

Event Time Altitude Azimuth Distance (km) Brightness Sun altitude
Rises 19:21:51 0° 15° (NNE) 4,670 7.5 -20.1°
Reaches altitude 10° 19:25:13 10° 16° (NNE) 3,366 6.8 -20.7°
Maximum altitude 19:32:34 86° 105° (ESE) 947 3.8 -21.9°
Drops below altitude 10° 19:37:24 10° 196° (SSW) 2,236 5.9 -22.6°
Sets 19:39:16 0° 196° (SSW) 3,013 6.6 -23.0°
